TimeEDT,TemperatureF,Dew PointF,Humidity,Sea Level PressureIn,VisibilityMPH,Wind Direction,Wind SpeedMPH,Gust SpeedMPH,PrecipitationIn,Events,Conditions,WindDirDegrees,DateUTC
12:53 AM,75.9,75.0,97,30.02,10.0,East,3.5,-,N/A,,Clear,100,2013-08-24 04:53:00
1:53 AM,75.9,73.9,94,30.01,10.0,East,4.6,-,N/A,,Clear,90,2013-08-24 05:53:00
2:53 AM,75.9,73.9,94,30.00,10.0,East,5.8,-,N/A,,Clear,100,2013-08-24 06:53:00
3:53 AM,75.9,73.9,94,30.00,10.0,Calm,Calm,-,N/A,,Clear,0,2013-08-24 07:53:00
4:53 AM,75.9,73.9,94,29.99,10.0,Calm,Calm,-,N/A,,Clear,0,2013-08-24 08:53:00
5:53 AM,75.9,73.9,94,30.00,10.0,Calm,Calm,-,N/A,,Clear,0,2013-08-24 09:53:00
6:53 AM,75.0,73.9,96,30.01,10.0,NE,3.5,-,N/A,,Clear,50,2013-08-24 10:53:00
7:53 AM,77.0,75.0,94,30.04,10.0,ENE,4.6,-,N/A,,Clear,60,2013-08-24 11:53:00
8:53 AM,80.1,75.9,87,30.05,10.0,ESE,5.8,-,N/A,,Clear,110,2013-08-24 12:53:00
9:53 AM,82.9,77.0,82,30.07,10.0,ESE,6.9,-,N/A,,Clear,110,2013-08-24 13:53:00
10:53 AM,84.9,73.9,69,30.08,10.0,SE,6.9,-,N/A,,Clear,140,2013-08-24 14:53:00
11:53 AM,88.0,73.0,61,30.07,10.0,Calm,Calm,-,N/A,,Partly Cloudy,0,2013-08-24 15:53:00
12:53 PM,89.1,71.1,55,30.06,10.0,ENE,6.9,-,N/A,,Partly Cloudy,60,2013-08-24 16:53:00
1:53 PM,91.9,72.0,52,30.04,10.0,ENE,6.9,-,N/A,,Partly Cloudy,70,2013-08-24 17:53:00
2:53 PM,91.0,71.1,52,30.03,10.0,Variable,4.6,-,N/A,,Partly Cloudy,0,2013-08-24 18:53:00
3:53 PM,93.0,71.1,49,30.00,10.0,Variable,4.6,-,N/A,,Scattered Clouds,0,2013-08-24 19:53:00
4:53 PM,91.9,71.1,50,29.99,10.0,ESE,12.7,-,N/A,,Mostly Cloudy,110,2013-08-24 20:53:00
5:12 PM,82.4,75.2,79,30.01,1.8,SSW,13.8,20.7,0.12,Rain,Heavy Rain,200,2013-08-24 21:12:00
5:21 PM,82.4,73.4,74,30.00,2.0,SW,15.0,-,0.15,Rain,Rain,220,2013-08-24 21:21:00
5:29 PM,80.6,73.4,79,30.01,6.0,SW,10.4,-,0.16,Rain,Light Rain,230,2013-08-24 21:29:00
5:53 PM,78.1,73.0,84,30.01,10.0,SW,16.1,-,0.16,Rain,Light Rain,230,2013-08-24 21:53:00
6:07 PM,75.2,73.4,94,30.03,1.5,SW,16.1,19.6,0.09,Rain,Heavy Rain,230,2013-08-24 22:07:00
6:26 PM,75.2,71.6,89,30.03,3.0,WSW,8.1,-,0.18,Rain,Light Rain,240,2013-08-24 22:26:00
6:53 PM,75.9,72.0,87,30.04,10.0,ESE,12.7,-,0.19,Rain,Light Rain,120,2013-08-24 22:53:00
7:03 PM,75.2,73.4,94,30.04,5.0,ESE,19.6,27.6,0.01,Rain,Rain,120,2013-08-24 23:03:00
7:39 PM,73.4,71.6,94,30.06,1.8,SE,16.1,21.9,0.12,Rain,Rain,140,2013-08-24 23:39:00
7:53 PM,73.0,72.0,96,30.05,1.8,SE,9.2,-,0.26,Rain,Rain,130,2013-08-24 23:53:00
7:58 PM,73.4,71.6,94,30.06,3.0,SE,10.4,-,0.01,Rain,Light Rain,130,2013-08-24 23:58:00
8:53 PM,75.0,73.0,94,30.09,10.0,East,6.9,-,0.01,,Scattered Clouds,90,2013-08-25 00:53:00
9:53 PM,75.9,73.9,94,30.11,10.0,ENE,4.6,-,N/A,,Scattered Clouds,70,2013-08-25 01:53:00
10:23 PM,75.2,73.4,94,30.14,10.0,NNE,6.9,-,N/A,,Overcast,30,2013-08-25 02:23:00
10:31 PM,75.2,73.4,94,30.14,10.0,NNE,8.1,-,N/A,,Overcast,30,2013-08-25 02:31:00
10:41 PM,75.2,73.4,94,30.14,10.0,NNE,8.1,-,N/A,,Overcast,30,2013-08-25 02:41:00
10:53 PM,75.0,73.0,94,30.14,10.0,NNE,9.2,-,N/A,,Overcast,30,2013-08-25 02:53:00
11:04 PM,75.2,73.4,94,30.14,5.0,Calm,Calm,-,0.04,Rain,Light Rain,0,2013-08-25 03:04:00
11:29 PM,75.2,73.4,94,30.12,8.0,Calm,Calm,-,0.05,Rain,Light Rain,0,2013-08-25 03:29:00
11:53 PM,75.0,73.0,94,30.10,10.0,SE,4.6,-,0.06,Rain,Light Rain,130,2013-08-25 03:53:00